| time (UTC) | temp F | wind direction | speed MPH | gust MPH | rain 1hr in | rain 24hr in | rain mn in | humidity % | barometer mb |
| 20260903213816 | 89 | 259 | 4.0 | 9.0 | 0.00 | 0.51 | 0.48 | 64 | 1012.2 |
| 20260903213328 | 89 | 296 | 3.0 | 9.0 | 0.00 | 0.51 | 0.48 | 64 | 1012.1 |
| 20260903212822 | 89 | 26 | 1.0 | 4.0 | 0.00 | 0.51 | 0.48 | 65 | 1012.1 |
| 20260903212334 | 89 | 277 | 2.0 | 8.0 | 0.00 | 0.51 | 0.48 | 65 | 1012.1 |
| 20260903211825 | 89 | 224 | 5.0 | 11.0 | 0.00 | 0.51 | 0.48 | 64 | 1012.1 |
| 20260903211315 | 89 | 181 | 4.0 | 11.0 | 0.00 | 0.51 | 0.48 | 64 | 1012.2 |
| 20260903210847 | 89 | 240 | 4.0 | 8.0 | 0.00 | 0.51 | 0.48 | 64 | 1012.2 |
| 20260903210317 | 89 | 289 | 3.0 | 8.0 | 0.00 | 0.51 | 0.48 | 64 | 1012.2 |
| 20260903205832 | 90 | 163 | 5.0 | 13.0 | 0.00 | 0.51 | 0.48 | 62 | 1012.2 |
| 20260903205324 | 90 | 284 | 5.0 | 13.0 | 0.00 | 0.51 | 0.48 | 62 | 1012.2 |
| 20260903204816 | 91 | 143 | 4.0 | 8.0 | 0.00 | 0.51 | 0.48 | 61 | 1012.2 |
| 20260903204326 | 91 | 246 | 3.0 | 9.0 | 0.00 | 0.51 | 0.48 | 60 | 1012.2 |
| 20260903203818 | 91 | 272 | 4.0 | 10.0 | 0.00 | 0.51 | 0.48 | 59 | 1012.1 |
| 20260903203330 | 91 | 287 | 5.0 | 10.0 | 0.00 | 0.51 | 0.48 | 60 | 1012.1 |
| 20260903202841 | 91 | 280 | 3.0 | 9.0 | 0.00 | 0.51 | 0.48 | 60 | 1012.1 |
| 20260903202332 | 91 | 250 | 3.0 | 7.0 | 0.00 | 0.51 | 0.48 | 60 | 1012.2 |
| 20260903201843 | 91 | 286 | 3.0 | 6.0 | 0.00 | 0.51 | 0.48 | 61 | 1012.3 |
| 20260903201332 | 91 | 263 | 2.0 | 7.0 | 0.00 | 0.51 | 0.48 | 61 | 1012.3 |
| 20260903200845 | 91 | 263 | 3.0 | 10.0 | 0.00 | 0.51 | 0.48 | 59 | 1012.4 |
| 20260903200321 | 92 | 236 | 5.0 | 10.0 | 0.00 | 0.51 | 0.48 | 59 | 1012.5 |
| 20260903195833 | 91 | 265 | 5.0 | 10.0 | 0.00 | 0.51 | 0.48 | 59 | 1012.5 |
| 20260903195324 | 91 | 252 | 6.0 | 10.0 | 0.00 | 0.51 | 0.48 | 60 | 1012.6 |
| 20260903194816 | 91 | 294 | 4.0 | 9.0 | 0.00 | 0.51 | 0.48 | 60 | 1012.6 |
| 20260903194347 | 91 | 268 | 4.0 | 11.0 | 0.00 | 0.51 | 0.48 | 60 | 1012.6 |
| 20260903193837 | 90 | 319 | 4.0 | 11.0 | 0.00 | 0.51 | 0.48 | 62 | 1012.8 |
| 20260903193348 | 90 | 266 | 6.0 | 13.0 | 0.00 | 0.51 | 0.48 | 61 | 1012.9 |
| 20260903192817 | 90 | 307 | 6.0 | 14.0 | 0.00 | 0.51 | 0.48 | 60 | 1013.0 |
| 20260903192352 | 90 | 302 | 5.0 | 16.0 | 0.00 | 0.51 | 0.48 | 60 | 1013.0 |
| 20260903191825 | 90 | 259 | 3.0 | 10.0 | 0.00 | 0.51 | 0.48 | 61 | 1012.9 |
| 20260903191320 | 90 | 295 | 4.0 | 10.0 | 0.00 | 0.51 | 0.48 | 62 | 1013.0 |
| 20260903190832 | 90 | 259 | 6.0 | 10.0 | 0.00 | 0.51 | 0.48 | 61 | 1013.0 |
| 20260903190326 | 90 | 275 | 5.0 | 12.0 | 0.00 | 0.51 | 0.48 | 62 | 1013.1 |
| 20260903185817 | 90 | 290 | 8.0 | 12.0 | 0.00 | 0.51 | 0.48 | 62 | 1013.1 |
| 20260903185328 | 90 | 241 | 5.0 | 9.0 | 0.00 | 0.51 | 0.48 | 63 | 1013.2 |
| 20260903184819 | 89 | 284 | 4.0 | 9.0 | 0.00 | 0.51 | 0.48 | 64 | 1013.2 |
| 20260903184311 | 89 | 336 | 3.0 | 14.0 | 0.00 | 0.51 | 0.48 | 65 | 1013.3 |
| 20260903183846 | 89 | 244 | 7.0 | 14.0 | 0.00 | 0.51 | 0.48 | 64 | 1013.4 |
| 20260903183319 | 89 | 290 | 3.0 | 10.0 | 0.00 | 0.51 | 0.48 | 65 | 1013.5 |
| 20260903182850 | 89 | 273 | 6.0 | 12.0 | 0.00 | 0.51 | 0.48 | 63 | 1013.5 |
| 20260903182324 | 89 | 287 | 5.0 | 10.0 | 0.00 | 0.51 | 0.48 | 64 | 1013.5 |
| 20260903181816 | 88 | 266 | 5.0 | 13.0 | 0.00 | 0.51 | 0.48 | 65 | 1013.5 |
| 20260903181327 | 88 | 230 | 6.0 | 12.0 | 0.00 | 0.51 | 0.48 | 65 | 1013.6 |
| 20260903180818 | 88 | 197 | 7.0 | 11.0 | 0.00 | 0.51 | 0.48 | 66 | 1013.8 |
| 20260903180330 | 88 | 264 | 5.0 | 10.0 | 0.00 | 0.51 | 0.48 | 66 | 1013.8 |
| 20260903175841 | 87 | 275 | 4.0 | 14.0 | 0.00 | 0.51 | 0.48 | 67 | 1013.8 |
| 20260903175331 | 86 | 282 | 5.0 | 14.0 | 0.00 | 0.51 | 0.48 | 67 | 1013.9 |
| 20260903174823 | 86 | 311 | 4.0 | 9.0 | 0.00 | 0.51 | 0.48 | 69 | 1013.9 |
| 20260903174354 | 86 | 298 | 3.0 | 12.0 | 0.00 | 0.51 | 0.48 | 69 | 1014.0 |
| 20260903173825 | 86 | 234 | 5.0 | 12.0 | 0.00 | 0.51 | 0.48 | 69 | 1014.0 |
| 20260903173319 | 85 | 267 | 6.0 | 11.0 | 0.00 | 0.51 | 0.48 | 70 | 1014.1 |
| 20260903172833 | 85 | 257 | 5.0 | 13.0 | 0.00 | 0.51 | 0.48 | 69 | 1014.3 |
| 20260903172324 | 86 | 291 | 5.0 | 13.0 | 0.00 | 0.51 | 0.48 | 68 | 1014.4 |
| 20260903171815 | 86 | 263 | 4.0 | 14.0 | 0.00 | 0.51 | 0.48 | 68 | 1014.5 |
| 20260903171329 | 86 | 281 | 6.0 | 14.0 | 0.00 | 0.51 | 0.48 | 68 | 1014.5 |
| 20260903170820 | 86 | 276 | 5.0 | 13.0 | 0.00 | 0.51 | 0.48 | 68 | 1014.6 |
| 20260903170330 | 86 | 248 | 8.0 | 14.0 | 0.00 | 0.51 | 0.48 | 68 | 1014.7 |
| 20260903165825 | 86 | 229 | 4.0 | 15.0 | 0.00 | 0.51 | 0.48 | 70 | 1014.7 |
| 20260903165340 | 86 | 254 | 4.0 | 15.0 | 0.00 | 0.51 | 0.48 | 71 | 1014.8 |
| 20260903164852 | 85 | 295 | 4.0 | 12.0 | 0.00 | 0.51 | 0.48 | 72 | 1014.8 |
| 20260903164321 | 85 | 242 | 5.0 | 12.0 | 0.00 | 0.51 | 0.48 | 71 | 1014.9 |
| 20260903163815 | 85 | 252 | 6.0 | 12.0 | 0.00 | 0.51 | 0.48 | 72 | 1015.0 |
| 20260903163327 | 85 | 236 | 6.0 | 12.0 | 0.00 | 0.51 | 0.48 | 71 | 1014.8 |
| 20260903162818 | 85 | 281 | 7.0 | 11.0 | 0.00 | 0.51 | 0.48 | 73 | 1014.9 |
| 20260903162329 | 85 | 296 | 4.0 | 11.0 | 0.00 | 0.51 | 0.48 | 73 | 1015.0 |
| 20260903161824 | 84 | 277 | 2.0 | 11.0 | 0.00 | 0.51 | 0.48 | 74 | 1015.1 |
| 20260903161316 | 84 | 287 | 4.0 | 11.0 | 0.00 | 0.51 | 0.48 | 75 | 1015.2 |
| 20260903160832 | 84 | 234 | 5.0 | 13.0 | 0.00 | 0.51 | 0.48 | 74 | 1015.3 |
| 20260903160322 | 84 | 257 | 5.0 | 13.0 | 0.00 | 0.51 | 0.48 | 75 | 1015.3 |
| 20260903155817 | 83 | 292 | 2.0 | 8.0 | 0.00 | 0.51 | 0.48 | 75 | 1015.1 |
| 20260903155333 | 83 | 277 | 3.0 | 8.0 | 0.00 | 0.51 | 0.48 | 75 | 1015.4 |
| 20260903154846 | 83 | 304 | 4.0 | 9.0 | 0.00 | 0.51 | 0.48 | 76 | 1015.3 |
| 20260903154315 | 83 | 284 | 5.0 | 11.0 | 0.00 | 0.51 | 0.48 | 75 | 1015.5 |
| 20260903153827 | 83 | 290 | 2.0 | 11.0 | 0.00 | 0.51 | 0.48 | 75 | 1015.4 |
| 20260903153319 | 83 | 290 | 3.0 | 8.0 | 0.00 | 0.51 | 0.48 | 76 | 1015.1 |
| 20260903152849 | 83 | 284 | 2.0 | 7.0 | 0.00 | 0.51 | 0.48 | 77 | 1015.2 |
| 20260903152324 | 82 | 291 | 3.0 | 7.0 | 0.00 | 0.51 | 0.48 | 78 | 1015.6 |
| 20260903151818 | 82 | 271 | 3.0 | 7.0 | 0.00 | 0.51 | 0.48 | 80 | 1015.6 |
| 20260903151350 | 81 | 233 | 4.0 | 11.0 | 0.00 | 0.51 | 0.48 | 80 | 1015.7 |
| 20260903150840 | 80 | 250 | 6.0 | 11.0 | 0.00 | 0.51 | 0.48 | 82 | 1015.6 |
| 20260903150351 | 80 | 275 | 2.0 | 8.0 | 0.00 | 0.51 | 0.48 | 84 | 1015.6 |
| 20260903145819 | 79 | 250 | 5.0 | 8.0 | 0.00 | 0.51 | 0.48 | 85 | 1015.5 |
| 20260903145331 | 79 | 276 | 3.0 | 7.0 | 0.00 | 0.51 | 0.48 | 87 | 1015.4 |
| 20260903144823 | 78 | 262 | 4.0 | 7.0 | 0.00 | 0.51 | 0.48 | 88 | 1015.3 |
| 20260903144315 | 78 | 296 | 2.0 | 6.0 | 0.00 | 0.51 | 0.48 | 90 | 1015.1 |
| 20260903143827 | 77 | 248 | 3.0 | 7.0 | 0.00 | 0.51 | 0.48 | 90 | 1015.2 |
| 20260903143318 | 76 | 254 | 2.0 | 8.0 | 0.00 | 0.51 | 0.48 | 91 | 1015.2 |
| 20260903142813 | 76 | 281 | 5.0 | 8.0 | 0.00 | 0.51 | 0.48 | 91 | 1015.0 |
| 20260903142328 | 75 | 273 | 4.0 | 7.0 | 0.00 | 0.51 | 0.48 | 92 | 1015.1 |
| 20260903141819 | 75 | 283 | 2.0 | 8.0 | 0.00 | 0.51 | 0.48 | 93 | 1015.0 |
| 20260903141354 | 75 | 254 | 5.0 | 10.0 | 0.00 | 0.51 | 0.48 | 93 | 1015.0 |
| 20260903140825 | 75 | 250 | 6.0 | 10.0 | 0.00 | 0.51 | 0.48 | 93 | 1014.9 |
| 20260903140319 | 74 | 269 | 2.0 | 7.0 | 0.00 | 0.51 | 0.48 | 94 | 1014.9 |
| 20260903135831 | 74 | 250 | 3.0 | 7.0 | 0.00 | 0.51 | 0.48 | 94 | 1015.0 |
| 20260903135323 | 74 | 253 | 4.0 | 9.0 | 0.00 | 0.51 | 0.48 | 94 | 1015.0 |
| 20260903134819 | 73 | 300 | 4.0 | 10.0 | 0.00 | 0.51 | 0.48 | 94 | 1015.2 |
| 20260903134330 | 73 | 316 | 3.0 | 10.0 | 0.00 | 0.51 | 0.48 | 94 | 1015.4 |
| 20260903133824 | 73 | 257 | 2.0 | 9.0 | 0.00 | 0.51 | 0.48 | 95 | 1015.3 |
| 20260903133316 | 73 | 250 | 3.0 | 8.0 | 0.00 | 0.51 | 0.48 | 95 | 1015.2 |
| 20260903132828 | 72 | 265 | 3.0 | 5.0 | 0.00 | 0.51 | 0.48 | 94 | 1015.4 |
| 20260903132318 | 72 | 249 | 2.0 | 4.0 | 0.00 | 0.51 | 0.48 | 94 | 1015.5 |
| 20260903131830 | 72 | 251 | 1.0 | 4.0 | 0.00 | 0.51 | 0.48 | 94 | 1015.5 |
| 20260903131342 | 72 | 201 | 1.0 | 4.0 | 0.00 | 0.51 | 0.48 | 94 | 1015.4 |
| 20260903130833 | 72 | 260 | 1.0 | 4.0 | 0.00 | 0.51 | 0.48 | 94 | 1015.6 |
| 20260903130344 | 72 | 256 | 2.0 | 7.0 | 0.00 | 0.51 | 0.48 | 95 | 1015.7 |
| 20260903125818 | 71 | 263 | 3.0 | 5.0 | 0.00 | 0.51 | 0.48 | 94 | 1016.3 |
| 20260903125350 | 71 | 267 | 2.0 | 4.0 | 0.00 | 0.51 | 0.48 | 94 | 1016.0 |
| 20260903124820 | 71 | 240 | 1.0 | 4.0 | 0.00 | 0.51 | 0.48 | 94 | 1015.7 |
| 20260903124333 | 71 | 267 | 2.0 | 6.0 | 0.00 | 0.51 | 0.48 | 94 | 1015.9 |
| 20260903123825 | 71 | 271 | 2.0 | 7.0 | 0.00 | 0.51 | 0.48 | 94 | 1015.9 |
| 20260903123336 | 71 | 218 | 2.0 | 7.0 | 0.00 | 0.51 | 0.48 | 94 | 1015.7 |
| 20260903122828 | 71 | 184 | 3.0 | 7.0 | 0.00 | 0.51 | 0.48 | 94 | 1015.7 |
| 20260903122320 | 71 | 159 | 2.0 | 7.0 | 0.00 | 0.51 | 0.48 | 94 | 1015.8 |
| 20260903121831 | 71 | 238 | 2.0 | 9.0 | 0.00 | 0.51 | 0.48 | 94 | 1016.0 |
| 20260903121323 | 71 | 186 | 3.0 | 9.0 | 0.00 | 0.51 | 0.48 | 94 | 1016.0 |
| 20260903120819 | 71 | 242 | 3.0 | 5.0 | 0.00 | 0.51 | 0.48 | 94 | 1016.0 |
| 20260903120350 | 71 | 234 | 2.0 | 5.0 | 0.00 | 0.51 | 0.48 | 94 | 1016.0 |
| 20260903115820 | 71 | 258 | 3.0 | 4.0 | 0.00 | 0.51 | 0.48 | 94 | 1016.0 |
| 20260903115312 | 71 | 229 | 2.0 | 6.0 | 0.00 | 0.51 | 0.48 | 94 | 1016.0 |
| 20260903114826 | 71 | 252 | 1.0 | 6.0 | 0.00 | 0.51 | 0.48 | 94 | 1015.9 |
| 20260903114317 | 71 | 217 | 2.0 | 5.0 | 0.00 | 0.51 | 0.48 | 94 | 1016.0 |
| 20260903113829 | 71 | 202 | 2.0 | 5.0 | 0.00 | 0.51 | 0.48 | 94 | 1016.1 |
| 20260903113321 | 71 | 248 | 2.0 | 5.0 | 0.00 | 0.51 | 0.48 | 94 | 1016.1 |
| 20260903112832 | 71 | 257 | 3.0 | 4.0 | 0.00 | 0.51 | 0.48 | 94 | 1016.1 |
| 20260903112328 | 71 | 244 | 2.0 | 4.0 | 0.01 | 0.51 | 0.48 | 94 | 1015.9 |
| 20260903111819 | 71 | 227 | 2.0 | 5.0 | 0.01 | 0.51 | 0.48 | 94 | 1015.6 |
| 20260903111332 | 71 | 277 | 2.0 | 5.0 | 0.01 | 0.51 | 0.48 | 94 | 1015.4 |
| 20260903110824 | 71 | 234 | 2.0 | 4.0 | 0.02 | 0.51 | 0.48 | 94 | 1015.6 |
| 20260903110317 | 71 | 245 | 1.0 | 4.0 | 0.04 | 0.51 | 0.48 | 94 | 1015.5 |
| 20260903105829 | 71 | 221 | 2.0 | 4.0 | 0.06 | 0.51 | 0.48 | 94 | 1015.2 |
| 20260903105320 | 71 | 234 | 2.0 | 7.0 | 0.07 | 0.51 | 0.48 | 94 | 1015.2 |
| 20260903104832 | 71 | 205 | 2.0 | 7.0 | 0.09 | 0.51 | 0.48 | 94 | 1015.3 |
| 20260903104328 | 71 | 178 | 3.0 | 7.0 | 0.10 | 0.51 | 0.48 | 94 | 1015.1 |
| 20260903103820 | 71 | 232 | 2.0 | 5.0 | 0.11 | 0.51 | 0.48 | 94 | 1015.6 |
| 20260903103336 | 71 | 182 | 2.0 | 5.0 | 0.12 | 0.51 | 0.48 | 94 | 1015.7 |
| 20260903102845 | 71 | 197 | 2.0 | 6.0 | 0.12 | 0.51 | 0.48 | 94 | 1015.9 |
| 20260903102315 | 71 | 229 | 2.0 | 6.0 | 0.11 | 0.50 | 0.47 | 94 | 1015.9 |
| 20260903101849 | 71 | 275 | 2.0 | 7.0 | 0.11 | 0.50 | 0.47 | 94 | 1015.9 |
| 20260903101342 | 71 | 219 | 3.0 | 7.0 | 0.11 | 0.50 | 0.47 | 94 | 1015.9 |
| 20260903100833 | 71 | 214 | 2.0 | 9.0 | 0.10 | 0.49 | 0.46 | 94 | 1016.1 |
| 20260903100323 | 71 | 230 | 3.0 | 8.0 | 0.08 | 0.47 | 0.44 | 94 | 1016.3 |
| 20260903095815 | 71 | 249 | 3.0 | 9.0 | 0.06 | 0.45 | 0.42 | 94 | 1016.2 |
| 20260903095326 | 71 | 252 | 5.0 | 13.0 | 0.04 | 0.43 | 0.40 | 94 | 1016.3 |
| 20260903094842 | 71 | 213 | 4.0 | 13.0 | 0.03 | 0.42 | 0.39 | 94 | 1016.2 |
| 20260903094332 | 71 | 276 | 3.0 | 12.0 | 0.02 | 0.41 | 0.38 | 94 | 1016.1 |
| 20260903093823 | 71 | 268 | 5.0 | 12.0 | 0.01 | 0.40 | 0.37 | 94 | 1016.3 |
| 20260903093355 | 71 | 265 | 6.0 | 9.0 | 0.00 | 0.39 | 0.36 | 94 | 1016.3 |
| 20260903092825 | 71 | 280 | 2.0 | 9.0 | 0.00 | 0.39 | 0.36 | 94 | 1015.9 |
| 20260903092317 | 71 | 252 | 4.0 | 9.0 | 0.00 | 0.39 | 0.36 | 94 | 1016.0 |
| 20260903091829 | 71 | 225 | 2.0 | 7.0 | 0.00 | 0.39 | 0.36 | 94 | 1015.9 |
| 20260903091320 | 72 | 278 | 3.0 | 7.0 | 0.00 | 0.39 | 0.36 | 94 | 1016.2 |
| 20260903090832 | 72 | 275 | 2.0 | 6.0 | 0.00 | 0.39 | 0.36 | 94 | 1016.3 |
| 20260903090343 | 72 | 275 | 3.0 | 8.0 | 0.00 | 0.39 | 0.36 | 94 | 1016.4 |
| 20260903085818 | 72 | 299 | 4.0 | 8.0 | 0.00 | 0.39 | 0.36 | 94 | 1016.6 |
| 20260903085333 | 72 | 250 | 5.0 | 8.0 | 0.01 | 0.39 | 0.36 | 94 | 1016.8 |
| 20260903084824 | 72 | 275 | 3.0 | 5.0 | 0.01 | 0.39 | 0.36 | 94 | 1016.6 |
| 20260903084319 | 72 | 278 | 2.0 | 4.0 | 0.02 | 0.39 | 0.36 | 94 | 1016.3 |
| 20260903083324 | 72 | 275 | 3.0 | 4.0 | 0.05 | 0.39 | 0.36 | 94 | 1016.2 |
| 20260903082855 | 72 | 296 | 3.0 | 4.0 | 0.07 | 0.39 | 0.36 | 94 | 1015.9 |
| 20260903082325 | 72 | 200 | 1.0 | 3.0 | 0.10 | 0.39 | 0.36 | 94 | 1015.6 |
| 20260903081816 | 72 | 250 | 1.0 | 4.0 | 0.12 | 0.39 | 0.36 | 94 | 1015.7 |
| 20260903081312 | 72 | 205 | 2.0 | 5.0 | 0.14 | 0.39 | 0.36 | 94 | 1015.9 |
| 20260903080847 | 72 | 242 | 3.0 | 7.0 | 0.16 | 0.39 | 0.36 | 94 | 1016.2 |
| 20260903080317 | 72 | 266 | 4.0 | 7.0 | 0.18 | 0.39 | 0.36 | 94 | 1016.4 |
| 20260903075828 | 72 | 274 | 4.0 | 7.0 | 0.19 | 0.39 | 0.36 | 94 | 1016.5 |
| 20260903075320 | 72 | 209 | 2.0 | 9.0 | 0.18 | 0.38 | 0.35 | 94 | 1015.8 |
| 20260903074831 | 72 | 150 | 4.0 | 9.0 | 0.18 | 0.37 | 0.34 | 94 | 1015.5 |
| 20260903074325 | 72 | 164 | 3.0 | 5.0 | 0.18 | 0.37 | 0.34 | 94 | 1016.2 |
| 20260903073836 | 71 | 230 | 1.0 | 6.0 | 0.16 | 0.35 | 0.32 | 94 | 1016.2 |
| 20260903073327 | 71 | 144 | 1.0 | 6.0 | 0.14 | 0.33 | 0.30 | 94 | 1016.6 |
| 20260903072818 | 71 | 170 | 2.0 | 4.0 | 0.12 | 0.31 | 0.28 | 93 | 1017.0 |
| 20260903072333 | 71 | 267 | 2.0 | 6.0 | 0.10 | 0.29 | 0.26 | 93 | 1017.4 |
| 20260903071824 | 71 | 274 | 2.0 | 5.0 | 0.08 | 0.27 | 0.24 | 93 | 1017.4 |
| 20260903071315 | 71 | 256 | 2.0 | 7.0 | 0.06 | 0.25 | 0.22 | 93 | 1017.5 |
| 20260903070827 | 71 | 218 | 2.0 | 7.0 | 0.04 | 0.23 | 0.20 | 93 | 1017.5 |
| 20260903070319 | 71 | 188 | 3.0 | 7.0 | 0.02 | 0.21 | 0.18 | 93 | 1017.4 |
| 20260903065829 | 71 | 244 | 3.0 | 5.0 | 0.01 | 0.20 | 0.17 | 93 | 1017.5 |
| 20260903065321 | 71 | 258 | 2.0 | 5.0 | 0.01 | 0.20 | 0.17 | 93 | 1017.2 |
| 20260903064832 | 72 | 257 | 1.0 | 4.0 | 0.04 | 0.19 | 0.16 | 93 | 1017.0 |
| 20260903064328 | 72 | 257 | 1.0 | 4.0 | 0.13 | 0.19 | 0.16 | 93 | 1017.2 |
| 20260903063842 | 72 | 257 | 1.0 | 2.0 | 0.16 | 0.19 | 0.16 | 93 | 1017.4 |
| 20260903063333 | 72 | 249 | 1.0 | 2.0 | 0.16 | 0.19 | 0.16 | 93 | 1017.4 |
| 20260903062825 | 72 | 50 | 0.0 | 2.0 | 0.16 | 0.19 | 0.16 | 93 | 1017.3 |
| 20260903062316 | 72 | 50 | 0.0 | 2.0 | 0.16 | 0.19 | 0.16 | 93 | 1017.3 |
| 20260903061827 | 72 | 50 | 1.0 | 2.0 | 0.16 | 0.19 | 0.16 | 93 | 1017.3 |
| 20260903061322 | 72 | 50 | 0.0 | 1.0 | 0.16 | 0.19 | 0.16 | 93 | 1017.4 |
| 20260903060816 | 72 | 50 | 0.0 | 1.0 | 0.16 | 0.19 | 0.16 | 93 | 1017.4 |
| 20260903060326 | 72 | 50 | 0.0 | 1.0 | 0.16 | 0.19 | 0.16 | 93 | 1017.7 |
| 20260903055822 | 72 | 50 | 0.0 | 3.0 | 0.16 | 0.19 | 0.16 | 93 | 1017.6 |
| 20260903055315 | 72 | 50 | 2.0 | 9.0 | 0.15 | 0.18 | 0.15 | 93 | 1017.9 |
| 20260903054825 | 72 | 325 | 5.0 | 9.0 | 0.12 | 0.15 | 0.12 | 93 | 1018.2 |
| 20260903054317 | 72 | 344 | 3.0 | 7.0 | 0.02 | 0.05 | 0.02 | 93 | 1018.5 |
| 20260903053829 | 72 | 321 | 2.0 | 4.0 | 0.00 | 0.03 | 0.00 | 93 | 1018.2 |
| 20260903053321 | 72 | 321 | 2.0 | 6.0 | 0.00 | 0.03 | 0.00 | 93 | 1017.9 |
| 20260903052814 | 72 | 343 | 3.0 | 5.0 | 0.00 | 0.03 | 0.00 | 93 | 1017.9 |
| 20260903052326 | 72 | 338 | 1.0 | 3.0 | 0.00 | 0.03 | 0.00 | 93 | 1017.8 |
| 20260903051842 | 72 | 278 | 0.0 | 2.0 | 0.00 | 0.03 | 0.00 | 93 | 1017.7 |
| 20260903051336 | 72 | 278 | 1.0 | 2.0 | 0.00 | 0.03 | 0.00 | 93 | 1017.7 |
| 20260903050318 | 72 | 49 | 0.0 | 1.0 | 0.00 | 0.03 | 0.00 | 93 | 1017.7 |
| 20260903045830 | 72 | 49 | 0.0 | 1.0 | 0.00 | 0.03 | 0.00 | 93 | 1017.7 |
| 20260903045324 | 72 | 49 | 0.0 | 1.0 | 0.00 | 0.03 | 0.00 | 93 | 1017.7 |
| 20260903044815 | 72 | 49 | 0.0 | 1.0 | 0.00 | 0.03 | 0.00 | 93 | 1017.6 |
| 20260903044326 | 72 | 49 | 0.0 | 1.0 | 0.00 | 0.03 | 0.00 | 92 | 1017.5 |
| 20260903043817 | 73 | 344 | 0.0 | 3.0 | 0.00 | 0.03 | 0.00 | 92 | 1017.9 |
| 20260903043348 | 73 | 344 | 1.0 | 3.0 | 0.00 | 0.03 | 0.00 | 92 | 1018.2 |
| 20260903042823 | 73 | 342 | 0.0 | 5.0 | 0.00 | 0.03 | 0.00 | 92 | 1018.6 |
| 20260903042317 | 73 | 350 | 0.0 | 2.0 | 0.00 | 0.03 | 0.00 | 92 | 1018.6 |
| 20260903041829 | 73 | 246 | 0.0 | 1.0 | 0.00 | 0.03 | 0.00 | 92 | 1018.4 |
| 20260903041323 | 73 | 246 | 0.0 | 0.0 | 0.00 | 0.03 | 0.00 | 92 | 1018.2 |
| 20260903040834 | 73 | 246 | 0.0 | 0.0 | 0.00 | 0.03 | 0.00 | 92 | 1018.1 |
| 20260903040325 | 73 | 246 | 0.0 | 2.0 | 0.01 | 0.03 | 0.00 | 92 | 1018.4 |
| 20260903035814 | 73 | 246 | 0.0 | 2.0 | 0.01 | 0.03 | 0.00 | 92 | 1018.6 |
| 20260903035326 | 73 | 246 | 1.0 | 2.0 | 0.01 | 0.03 | 0.00 | 92 | 1018.6 |
| 20260903034821 | 73 | 196 | 1.0 | 2.0 | 0.01 | 0.03 | 0.00 | 92 | 1018.4 |
| 20260903034332 | 73 | 163 | 1.0 | 3.0 | 0.01 | 0.03 | 0.00 | 92 | 1018.3 |
| 20260903033844 | 73 | 124 | 1.0 | 3.0 | 0.01 | 0.03 | 0.03 | 92 | 1018.3 |
| 20260903033314 | 73 | 150 | 1.0 | 3.0 | 0.01 | 0.03 | 0.03 | 92 | 1018.1 |
| 20260903032825 | 73 | 155 | 1.0 | 3.0 | 0.01 | 0.03 | 0.03 | 92 | 1018.1 |
| 20260903032319 | 72 | 111 | 0.0 | 3.0 | 0.01 | 0.03 | 0.03 | 92 | 1018.1 |
| 20260903031831 | 72 | 141 | 1.0 | 3.0 | 0.01 | 0.03 | 0.03 | 92 | 1017.9 |
| 20260903031325 | 72 | 105 | 1.0 | 3.0 | 0.01 | 0.03 | 0.03 | 92 | 1018.0 |
| 20260903030820 | 72 | 97 | 0.0 | 4.0 | 0.01 | 0.03 | 0.03 | 92 | 1018.2 |
| 20260903030331 | 72 | 90 | 1.0 | 4.0 | 0.01 | 0.02 | 0.02 | 92 | 1018.0 |
| 20260903025823 | 72 | 103 | 1.0 | 2.0 | 0.01 | 0.02 | 0.02 | 92 | 1018.2 |
| 20260903025334 | 72 | 103 | 1.0 | 1.0 | 0.01 | 0.02 | 0.02 | 92 | 1018.3 |
| 20260903024845 | 72 | 103 | 0.0 | 1.0 | 0.01 | 0.02 | 0.02 | 92 | 1018.6 |
| 20260903024338 | 72 | 103 | 1.0 | 1.0 | 0.01 | 0.02 | 0.02 | 92 | 1018.6 |
| 20260903023324 | 72 | 103 | 0.0 | 2.0 | 0.01 | 0.02 | 0.02 | 92 | 1018.4 |
| 20260903022815 | 72 | 120 | 1.0 | 4.0 | 0.02 | 0.02 | 0.02 | 92 | 1018.2 |
| 20260903022329 | 72 | 47 | 0.0 | 2.0 | 0.02 | 0.02 | 0.02 | 92 | 1018.2 |
| 20260903021825 | 72 | 105 | 1.0 | 4.0 | 0.02 | 0.02 | 0.02 | 91 | 1018.1 |
| 20260903021319 | 72 | 130 | 1.0 | 4.0 | 0.02 | 0.02 | 0.02 | 91 | 1018.2 |
| 20260903020831 | 72 | 119 | 0.0 | 3.0 | 0.02 | 0.02 | 0.02 | 91 | 1018.3 |
| 20260903020342 | 72 | 121 | 1.0 | 3.0 | 0.01 | 0.01 | 0.01 | 91 | 1018.5 |
| 20260903015853 | 72 | 95 | 1.0 | 3.0 | 0.01 | 0.01 | 0.01 | 91 | 1018.5 |
| 20260903015323 | 72 | 67 | 0.0 | 3.0 | 0.01 | 0.01 | 0.01 | 91 | 1018.6 |
| 20260903014834 | 72 | 48 | 0.0 | 2.0 | 0.01 | 0.01 | 0.01 | 91 | 1018.7 |
| 20260903014346 | 72 | 55 | 1.0 | 2.0 | 0.01 | 0.01 | 0.01 | 91 | 1018.6 |
| 20260903013817 | 72 | 87 | 1.0 | 3.0 | 0.01 | 0.02 | 0.01 | 90 | 1018.8 |
| 20260903013330 | 72 | 92 | 1.0 | 3.0 | 0.01 | 0.02 | 0.01 | 90 | 1018.9 |
| 20260903012844 | 72 | 106 | 1.0 | 3.0 | 0.00 | 0.01 | 0.00 | 90 | 1018.8 |
| 20260903012319 | 72 | 126 | 1.0 | 3.0 | 0.00 | 0.01 | 0.00 | 90 | 1018.9 |
| 20260903011830 | 72 | 75 | 0.0 | 3.0 | 0.00 | 0.01 | 0.00 | 90 | 1019.3 |
| 20260903011344 | 72 | 92 | 1.0 | 3.0 | 0.00 | 0.01 | 0.00 | 90 | 1019.2 |
| 20260903010817 | 72 | 67 | 0.0 | 3.0 | 0.00 | 0.01 | 0.00 | 90 | 1019.2 |
| 20260903010329 | 72 | 72 | 2.0 | 3.0 | 0.00 | 0.01 | 0.00 | 90 | 1019.3 |
| 20260903005841 | 72 | 79 | 1.0 | 4.0 | 0.00 | 0.01 | 0.00 | 90 | 1019.3 |
| 20260903005332 | 72 | 55 | 1.0 | 4.0 | 0.00 | 0.01 | 0.00 | 89 | 1019.0 |
| 20260903004824 | 72 | 94 | 1.0 | 3.0 | 0.00 | 0.01 | 0.00 | 89 | 1018.9 |
| 20260903004335 | 72 | 52 | 1.0 | 5.0 | 0.00 | 0.01 | 0.00 | 89 | 1019.1 |
| 20260903003825 | 72 | 68 | 2.0 | 5.0 | 0.00 | 0.19 | 0.00 | 89 | 1018.9 |
| 20260903003321 | 72 | 118 | 1.0 | 3.0 | 0.00 | 0.19 | 0.00 | 89 | 1019.0 |
| 20260903002852 | 72 | 75 | 2.0 | 3.0 | 0.00 | 0.19 | 0.00 | 89 | 1018.8 |
| 20260903002322 | 72 | 69 | 1.0 | 3.0 | 0.00 | 0.19 | 0.00 | 89 | 1018.9 |
| 20260903001817 | 72 | 96 | 1.0 | 5.0 | 0.00 | 0.19 | 0.00 | 89 | 1018.8 |
| 20260903001328 | 72 | 100 | 1.0 | 4.0 | 0.00 | 0.19 | 0.00 | 89 | 1018.8 |
| 20260903000819 | 72 | 122 | 2.0 | 4.0 | 0.00 | 0.19 | 0.00 | 89 | 1018.7 |
| 20260903000332 | 72 | 17 | 2.0 | 4.0 | 0.00 | 0.19 | 0.00 | 89 | 1018.4 |
| 20260902235822 | 72 | 153 | 1.0 | 4.0 | 0.00 | 0.19 | 0.00 | 89 | 1018.4 |
| 20260902235318 | 72 | 83 | 1.0 | 4.0 | 0.00 | 0.19 | 0.00 | 89 | 1018.4 |
| 20260902234828 | 72 | 119 | 1.0 | 4.0 | 0.00 | 0.19 | 0.00 | 89 | 1018.3 |
| 20260902234320 | 72 | 46 | 2.0 | 6.0 | 0.00 | 0.19 | 0.00 | 89 | 1018.3 |
| 20260902233851 | 72 | 124 | 1.0 | 6.0 | 0.00 | 0.19 | 0.00 | 89 | 1018.2 |
| 20260902233321 | 72 | 77 | 1.0 | 5.0 | 0.00 | 0.19 | 0.00 | 89 | 1018.1 |
| 20260902232853 | 72 | 79 | 2.0 | 5.0 | 0.00 | 0.19 | 0.00 | 88 | 1018.2 |
| 20260902232323 | 72 | 109 | 1.0 | 7.0 | 0.00 | 0.19 | 0.00 | 88 | 1018.2 |
| 20260902231815 | 72 | 101 | 2.0 | 7.0 | 0.00 | 0.19 | 0.00 | 88 | 1018.2 |
| 20260902231330 | 72 | 70 | 1.0 | 5.0 | 0.00 | 0.19 | 0.00 | 88 | 1018.4 |
| 20260902230821 | 72 | 65 | 1.0 | 6.0 | 0.00 | 0.19 | 0.00 | 88 | 1018.3 |
| 20260902230317 | 72 | 55 | 2.0 | 6.0 | 0.00 | 0.19 | 0.00 | 88 | 1018.5 |
| 20260902225828 | 72 | 167 | 1.0 | 5.0 | 0.00 | 0.19 | 0.00 | 88 | 1018.5 |
| 20260902225320 | 72 | 84 | 2.0 | 6.0 | 0.00 | 0.19 | 0.00 | 88 | 1018.7 |
| 20260902224830 | 72 | 73 | 2.0 | 8.0 | 0.00 | 0.19 | 0.00 | 87 | 1018.7 |
| 20260902224321 | 72 | 94 | 2.0 | 8.0 | 0.00 | 0.19 | 0.00 | 87 | 1018.7 |
| 20260902223815 | 72 | 74 | 2.0 | 7.0 | 0.00 | 0.19 | 0.00 | 87 | 1018.8 |
| 20260902223348 | 72 | 101 | 2.0 | 9.0 | 0.00 | 0.19 | 0.00 | 87 | 1018.8 |
| 20260902222821 | 72 | 32 | 2.0 | 9.0 | 0.00 | 0.19 | 0.00 | 87 | 1018.9 |
| 20260902222333 | 72 | 80 | 2.0 | 8.0 | 0.00 | 0.19 | 0.00 | 87 | 1019.0 |
| 20260902221845 | 72 | 88 | 2.0 | 6.0 | 0.00 | 0.19 | 0.00 | 87 | 1019.2 |
| 20260902220829 | 72 | 171 | 2.0 | 8.0 | 0.00 | 0.19 | 0.00 | 87 | 1019.5 |
| 20260902220320 | 72 | 47 | 2.0 | 7.0 | 0.00 | 0.19 | 0.00 | 86 | 1019.5 |
| 20260902215815 | 72 | 80 | 2.0 | 7.0 | 0.00 | 0.19 | 0.00 | 86 | 1019.4 |
| 20260902215326 | 72 | 28 | 2.0 | 6.0 | 0.00 | 0.19 | 0.00 | 86 | 1019.3 |
| 20260902214817 | 72 | 111 | 2.0 | 6.0 | 0.00 | 0.19 | 0.00 | 86 | 1019.1 |
| 20260902214329 | 72 | 71 | 2.0 | 6.0 | 0.00 | 0.19 | 0.00 | 86 | 1019.2 |